TimePST,TemperatureF,Dew PointF,Humidity,Sea Level PressureIn,VisibilityMPH,Wind Direction,Wind SpeedMPH,Gust SpeedMPH,PrecipitationIn,Events,Conditions,WindDirDegrees,DateUTC
12:53 AM,36.0,35.1,97,29.61,7.0,Calm,Calm,-,0.00,,Mostly Cloudy,0,2012-11-30 08:53:00
1:21 AM,35.6,35.6,100,29.59,6.0,Calm,Calm,-,N/A,,Overcast,0,2012-11-30 09:21:00
1:53 AM,36.0,35.1,97,29.60,6.0,NW,3.5,-,N/A,,Mostly Cloudy,310,2012-11-30 09:53:00
2:07 AM,35.6,35.6,100,29.58,6.0,Calm,Calm,-,N/A,,Mostly Cloudy,0,2012-11-30 10:07:00
2:53 AM,35.1,35.1,100,29.60,5.0,NW,4.6,-,N/A,,Clear,310,2012-11-30 10:53:00
3:13 AM,35.6,35.6,100,29.58,5.0,Calm,Calm,-,N/A,,Mostly Cloudy,0,2012-11-30 11:13:00
3:25 AM,35.6,33.8,93,29.58,5.0,Variable,3.5,-,N/A,,Mostly Cloudy,0,2012-11-30 11:25:00
3:49 AM,35.6,35.6,100,29.57,6.0,Calm,Calm,-,N/A,,Scattered Clouds,0,2012-11-30 11:49:00
3:53 AM,35.1,35.1,100,29.57,5.0,Calm,Calm,-,N/A,,Scattered Clouds,0,2012-11-30 11:53:00
4:11 AM,33.8,33.8,100,29.56,2.0,NNW,3.5,-,N/A,,Clear,330,2012-11-30 12:11:00
4:27 AM,33.8,32.0,93,29.56,1.2,Calm,Calm,-,N/A,,Clear,0,2012-11-30 12:27:00
4:53 AM,33.1,32.0,96,29.58,2.5,WSW,3.5,-,N/A,,Partly Cloudy,240,2012-11-30 12:53:00
4:59 AM,33.8,33.8,100,29.57,4.0,Calm,Calm,-,N/A,,Mostly Cloudy,0,2012-11-30 12:59:00
5:11 AM,33.8,32.0,93,29.56,1.8,Calm,Calm,-,N/A,,Mostly Cloudy,0,2012-11-30 13:11:00
5:35 AM,32.0,32.0,100,29.56,1.8,NW,3.5,-,N/A,,Overcast,320,2012-11-30 13:35:00
5:39 AM,32.0,32.0,100,29.55,3.0,NNW,5.8,-,N/A,,Overcast,340,2012-11-30 13:39:00
5:53 AM,33.1,32.0,96,29.57,3.0,NNW,3.5,-,N/A,,Overcast,330,2012-11-30 13:53:00
6:37 AM,33.8,32.0,93,29.56,5.0,Calm,Calm,-,N/A,,Mostly Cloudy,0,2012-11-30 14:37:00
6:53 AM,33.1,32.0,96,29.57,6.0,Calm,Calm,-,N/A,,Overcast,0,2012-11-30 14:53:00
7:21 AM,33.8,32.0,93,29.57,2.5,NW,3.5,-,N/A,,Mostly Cloudy,320,2012-11-30 15:21:00
7:49 AM,33.8,33.8,100,29.57,2.5,Calm,Calm,-,N/A,,Overcast,0,2012-11-30 15:49:00
7:53 AM,33.1,33.1,100,29.58,3.0,Calm,Calm,-,N/A,,Overcast,0,2012-11-30 15:53:00
8:53 AM,36.0,36.0,100,29.61,3.0,Calm,Calm,-,N/A,,Overcast,0,2012-11-30 16:53:00
9:53 AM,39.0,37.0,93,29.62,4.0,ENE,5.8,-,N/A,,Clear,60,2012-11-30 17:53:00
10:53 AM,42.1,39.0,89,29.62,10.0,SE,3.5,-,N/A,,Scattered Clouds,140,2012-11-30 18:53:00
11:53 AM,45.0,39.9,82,29.60,10.0,SE,8.1,-,N/A,,Clear,140,2012-11-30 19:53:00
12:53 PM,46.0,41.0,83,29.61,10.0,SE,3.5,-,0.01,,Clear,140,2012-11-30 20:53:00
1:53 PM,48.9,43.0,80,29.60,9.0,Calm,Calm,-,N/A,,Scattered Clouds,0,2012-11-30 21:53:00
2:53 PM,50.0,44.1,80,29.59,10.0,SSE,8.1,-,N/A,,Overcast,150,2012-11-30 22:53:00
4:53 PM,46.9,44.1,90,29.58,10.0,Calm,Calm,-,0.00,,Mostly Cloudy,0,2012-12-01 00:53:00
5:53 PM,46.0,43.0,89,29.57,10.0,Calm,Calm,-,N/A,,Clear,0,2012-12-01 01:53:00
6:53 PM,44.1,42.1,93,29.57,7.0,Calm,Calm,-,N/A,,Partly Cloudy,0,2012-12-01 02:53:00
9:53 PM,45.0,43.0,93,29.57,10.0,NNE,3.5,-,N/A,,Mostly Cloudy,20,2012-12-01 05:53:00
10:53 PM,43.0,42.1,97,29.55,10.0,Calm,Calm,-,N/A,,Overcast,0,2012-12-01 06:53:00
11:53 PM,44.1,42.1,93,29.55,10.0,NE,6.9,-,N/A,,Clear,50,2012-12-01 07:53:00